GEFSMW_500_meanwind_168.txt.gz
Wind_Speed
12 12 12 11 11 10 10 8 7 6 6 5 5 4 3 3 2 2 4 5 5 6 6 6 6 6 6 6 6 5 4 3 2 1 1 1 2 3 3 4 4 5 6
12 12 12 12 12 12 11 9 8 7 6 6 5 4 3 3 2 2 3 4 5 5 6 5 6 6 6 6 6 5 5 4 3 2 2 1 1 2 2 3 3 4 5
13 13 13 13 12 11 11 9 8 7 7 6 6 5 4 3 2 2 3 4 4 5 5 5 5 5 5 5 5 5 5 4 3 3 2 1 1 1 1 2 2 3 3
14 14 14 13 12 12 12 10 9 8 8 7 6 5 4 3 2 1 2 3 4 4 5 5 4 4 5 5 5 5 5 5 4 4 3 3 2 1 0 1 1 1 2
14 13 14 14 14 13 12 11 10 9 8 8 6 5 4 3 2 2 2 2 3 4 4 4 4 4 3 4 4 5 5 5 4 4 4 3 3 2 1 1 0 1 2
14 13 14 15 14 13 12 11 10 10 9 8 7 5 5 4 3 2 1 1 2 3 3 4 4 3 3 3 3 4 4 4 4 4 3 3 3 3 2 2 1 1 1
14 14 14 15 15 14 13 12 11 11 10 9 8 6 5 5 4 3 2 2 1 1 2 2 3 3 3 3 3 3 3 3 3 3 3 3 3 3 2 2 2 2 2
14 14 13 14 15 14 14 13 12 11 10 9 8 7 6 5 4 4 4 3 2 2 2 2 2 2 2 3 3 3 3 3 3 3 3 3 3 2 2 2 3 3 3
14 14 13 14 15 15 15 14 13 11 11 10 9 8 6 5 5 5 5 4 4 3 2 2 3 3 3 3 3 3 2 2 2 2 2 2 2 2 3 3 4 4 4
14 14 14 14 14 15 15 15 14 12 11 11 10 9 7 6 6 5 5 5 5 4 4 4 4 4 4 4 4 3 3 2 2 2 2 2 2 3 3 4 5 5 5
13 14 14 14 15 15 15 15 14 13 11 11 11 10 9 8 7 6 5 5 6 5 5 5 5 4 4 3 3 3 3 3 3 3 3 3 4 4 4 5 6 6 6
14 14 15 15 15 15 15 16 15 13 12 12 12 11 10 9 8 8 7 7 7 7 6 5 5 4 4 3 3 4 4 4 4 5 5 5 6 6 6 6 7 7 8
14 15 15 15 15 15 15 16 15 14 13 13 12 12 11 10 10 9 9 9 9 8 7 6 5 5 5 4 4 5 5 5 6 6 7 7 7 8 8 8 9 9 9
13 14 15 14 15 15 15 15 16 15 14 14 13 12 12 11 11 10 10 10 10 10 9 7 7 6 6 6 6 6 6 6 7 7 8 8 9 9 10 10 11 11 11
13 14 15 15 14 15 15 15 16 15 15 14 14 13 12 11 12 11 11 11 11 11 11 9 9 8 8 8 8 8 8 8 8 9 9 10 10 11 12 12 12 13 13
13 14 14 14 15 15 15 15 16 16 16 15 14 13 13 12 12 12 12 12 12 12 12 11 10 10 10 10 10 10 10 10 10 11 11 12 13 13 14 14 14 15 15
14 15 16 16 15 15 15 15 16 16 16 16 15 15 14 14 14 13 14 14 14 14 13 12 12 12 12 11 12 12 12 12 12 12 13 13 14 15 15 16 16 17 17
15 16 17 17 17 17 16 16 16 16 17 17 17 16 16 16 15 15 15 15 15 15 14 14 14 13 13 13 14 14 14 14 14 15 15 16 16 17 18 19 19 20 20
14 15 17 17 17 17 17 17 17 17 16 16 17 17 17 17 17 17 17 17 17 17 16 16 16 15 16 16 16 16 16 16 17 17 18 18 19 20 21 21 22 23 23
13 14 16 17 18 17 17 17 17 17 17 17 18 18 18 18 18 18 17 17 17 17 17 17 17 18 18 18 18 19 19 19 19 20 21 21 22 23 23 24 25 25 26
13 14 15 16 18 18 18 18 18 18 18 18 19 19 19 19 18 18 18 18 18 18 18 19 19 20 20 20 20 21 21 21 22 22 23 24 25 25 26 27 27 28 29
14 14 15 16 17 18 18 19 18 18 19 19 19 19 19 19 19 19 20 20 20 20 20 21 22 22 22 23 23 23 23 24 24 24 25 26 27 28 28 29 30 30 31
15 15 15 16 17 17 18 19 19 19 18 19 19 19 20 20 20 21 21 22 21 21 22 22 23 24 24 24 24 25 25 26 26 27 27 29 29 30 31 32 33 33 34
16 16 16 16 17 17 17 18 19 19 19 19 20 20 21 21 21 21 21 21 22 22 23 24 24 25 26 26 27 27 28 28 28 29 30 31 32 32 33 34 35 36 36
17 17 17 18 18 18 19 19 20 20 20 21 21 21 22 22 22 22 22 23 23 24 25 26 26 27 28 28 29 29 30 30 31 32 32 33 34 35 35 36 37 37 38
18 19 19 19 19 20 20 21 21 21 21 22 22 23 24 24 24 24 25 25 26 27 28 28 29 29 30 30 31 32 32 33 33 34 34 35 36 37 37 38 38 39 39

GEFSMW_500_meanwind_174.txt.gz
Wind_Speed
14 14 14 13 13 13 11 10 9 8 7 7 6 5 4 4 4 4 4 5 5 5 5 5 5 5 5 5 4 4 3 3 2 1 1 2 3 4 4 4 4 5 5
15 15 15 14 14 13 12 11 10 9 7 7 7 6 5 4 3 3 4 4 4 4 4 4 5 4 5 4 4 4 4 3 2 1 0 1 2 3 3 3 3 4 4
15 15 15 15 15 14 13 12 10 10 8 7 7 6 5 4 3 3 3 3 3 4 4 4 4 4 4 4 4 4 4 4 3 2 1 1 2 2 3 3 3 3 3
16 16 16 16 16 15 14 13 11 10 9 8 7 6 6 5 4 3 3 3 3 3 3 3 3 4 4 4 4 4 4 3 3 2 2 1 1 1 2 2 3 3 3
16 16 16 17 17 15 15 13 13 11 10 8 7 7 6 5 5 3 3 2 2 2 3 3 3 3 4 4 4 4 3 3 2 2 2 2 1 0 1 2 2 3 3
17 17 17 17 17 16 15 14 13 11 10 9 8 7 7 6 5 4 3 3 2 2 2 2 2 3 3 4 3 3 3 3 3 2 2 1 1 0 0 1 2 2 3
17 16 17 17 17 16 15 15 13 12 11 10 9 8 7 7 6 5 4 4 3 2 2 3 3 3 3 3 3 3 3 3 2 2 2 2 1 1 1 2 2 2 3
16 16 17 18 17 17 16 16 14 13 11 11 10 9 7 7 7 6 5 4 4 3 3 3 3 3 3 4 4 3 3 3 3 3 3 2 2 2 2 3 3 3 4
16 16 16 17 17 17 17 17 16 14 13 12 11 9 8 8 7 7 6 5 4 4 4 4 4 4 4 4 4 4 4 4 3 2 3 3 2 2 3 3 4 4 5
15 15 16 18 18 18 18 17 16 15 14 13 11 10 9 8 8 8 7 5 5 4 5 5 5 5 5 5 5 4 4 3 3 3 3 3 3 4 4 5 5 6 6
15 16 17 17 18 18 18 18 16 15 14 13 12 11 11 9 8 8 7 6 6 5 6 6 6 6 6 6 5 5 4 4 3 3 4 4 4 4 5 6 6 7 7
15 16 17 18 18 18 18 17 16 16 15 14 13 13 11 10 9 9 8 7 7 7 7 7 7 7 7 6 6 5 5 5 5 5 5 5 5 6 6 7 8 8 8
15 16 17 18 19 18 17 17 15 16 16 15 14 14 12 11 10 10 9 9 9 9 8 8 8 8 7 7 7 7 6 6 6 6 6 7 7 8 8 9 9 10 10
15 16 18 18 18 18 18 17 15 16 17 17 16 15 14 12 12 12 11 10 10 10 10 10 10 9 9 8 8 8 8 8 8 8 9 9 10 10 10 11 11 11 12
15 16 17 18 18 18 18 17 16 16 16 17 16 16 15 14 13 13 13 12 12 12 11 11 11 11 11 10 10 10 10 9 10 10 11 11 12 12 12 13 13 13 14
16 16 16 17 18 19 19 18 18 17 16 16 17 17 16 15 15 15 14 14 14 14 13 12 12 12 12 12 11 12 11 11 12 12 12 13 13 14 14 15 15 15 15
16 16 16 16 17 17 18 19 19 18 17 17 17 17 17 17 16 16 16 16 16 15 15 14 13 13 14 14 13 13 13 14 14 14 14 15 15 15 15 15 16 17 17
16 16 16 16 16 17 17 18 19 19 18 18 18 18 18 17 17 17 17 17 17 17 16 15 15 16 16 16 16 16 16 17 17 17 17 17 17 18 17 17 18 19 19
16 16 16 16 16 17 18 18 19 18 18 17 17 18 18 17 17 18 18 18 18 17 17 17 17 17 18 18 18 18 18 18 19 19 19 19 19 19 20 20 21 21 22
15 16 17 16 16 17 18 18 18 18 18 18 18 18 18 19 19 19 19 19 18 18 19 19 19 20 19 20 19 20 21 21 21 21 21 22 22 22 22 23 24 24 25
16 16 16 16 16 17 18 18 18 19 19 19 19 19 19 20 20 20 21 21 20 21 21 21 21 21 21 21 21 21 22 22 23 23 23 23 24 24 24 25 27 27 27
16 17 17 17 17 17 17 18 19 19 20 20 21 20 20 21 21 21 22 22 22 22 22 22 22 22 22 22 22 23 23 23 24 24 25 25 26 26 27 28 29 29 29
17 17 17 17 17 17 18 19 20 20 21 22 22 22 22 23 22 22 22 23 23 23 23 23 23 23 23 23 23 24 25 25 26 26 27 27 28 28 29 30 31 31 32
17 17 18 18 18 18 19 20 21 22 22 23 24 24 24 23 23 23 23 23 23 23 24 24 24 24 24 25 25 26 27 27 28 28 29 29 30 31 32 32 32 33 34
18 18 19 19 19 20 20 20 21 22 23 23 24 24 24 24 24 24 24 23 24 24 25 26 25 25 26 26 27 28 29 29 30 31 31 32 32 33 33 33 34 34 35
18 19 19 19 19 19 20 20 21 22 23 24 24 24 24 24 24 25 25 25 26 27 27 27 27 27 27 28 29 30 31 31 33 33 33 34 35 35 35 35 35 35 36

GEFSMW_500_meanwind_180.txt.gz
Wind_Speed
16 16 16 16 15 14 14 12 12 11 10 9 9 8 7 6 5 5 5 4 4 4 4 4 5 4 4 4 3 3 3 3 2 2 3 4 4 4 5 6 7 7 8
17 17 17 17 16 15 14 13 12 11 10 10 9 8 7 6 6 5 4 4 4 5 4 4 4 4 3 3 2 2 3 3 2 2 3 3 4 4 4 5 6 7 7
17 17 17 17 16 15 15 14 13 12 11 10 9 9 7 7 6 5 4 4 4 4 3 3 3 3 2 2 2 2 2 2 1 1 2 3 3 4 4 5 5 6 7
17 18 18 18 17 16 16 15 14 13 11 11 10 9 8 7 7 6 5 4 3 3 3 3 3 2 2 2 2 2 2 2 1 1 1 2 3 4 4 4 5 6 6
18 18 18 18 17 17 16 15 14 14 12 11 10 9 9 7 7 6 5 4 4 3 3 3 3 2 2 2 3 2 2 2 1 1 1 1 2 3 4 5 5 6 6
18 18 18 18 18 17 16 15 14 14 13 12 11 10 9 8 8 7 6 5 5 4 4 3 3 3 3 3 2 2 1 1 1 1 1 2 2 3 4 4 5 6 6
18 18 18 18 18 17 16 16 14 14 14 13 12 11 10 9 9 8 7 6 6 5 4 4 4 4 4 3 2 2 2 2 2 2 2 2 3 3 3 4 4 5 6
17 17 18 18 18 18 17 16 15 14 14 14 12 12 10 10 9 8 7 7 6 5 5 4 4 4 4 5 4 4 3 3 3 3 3 3 3 3 3 3 3 4 5
16 16 17 17 17 17 17 16 16 15 15 15 14 12 11 11 10 9 8 7 7 6 5 5 5 4 4 3 3 3 4 4 4 4 3 4 4 3 4 4 4 5 5
15 16 17 17 17 17 17 17 17 16 15 15 14 13 12 12 12 10 9 9 8 7 7 6 6 5 4 4 4 4 5 5 5 5 5 5 5 5 5 5 5 6 6
14 14 15 17 18 18 17 18 17 16 16 15 15 14 13 13 12 11 9 9 9 9 8 7 6 6 6 6 6 6 6 6 6 6 6 6 6 6 6 7 7 8 8
14 14 15 16 17 18 17 17 17 16 16 16 16 15 14 13 13 12 11 10 10 10 9 8 7 7 7 7 7 7 7 6 6 6 7 7 7 8 8 9 9 9 10
14 15 15 16 17 18 18 17 17 17 17 16 16 16 15 15 14 13 12 12 11 10 9 9 8 8 8 8 8 8 8 8 8 8 8 8 8 9 10 11 11 11 12
15 15 15 16 17 17 18 17 18 17 17 16 16 16 16 15 15 14 14 13 12 11 11 10 10 10 9 10 10 10 10 9 9 9 10 10 10 11 11 12 13 14 14
14 15 15 15 17 17 17 18 18 18 17 16 16 16 16 16 16 16 15 13 13 13 12 12 11 11 11 11 11 11 11 10 10 11 11 12 12 13 14 14 15 15 15
14 15 15 15 16 16 17 17 18 18 17 16 16 16 16 16 16 16 15 15 15 14 13 13 13 13 13 13 12 12 12 12 12 12 13 13 14 15 15 16 17 17 17
14 15 16 16 16 16 17 17 18 18 17 17 16 17 17 16 16 16 16 16 15 15 15 15 15 15 15 15 15 15 15 15 15 15 15 16 16 16 17 17 18 18 18
14 14 16 17 16 17 18 18 18 18 18 18 18 17 17 17 17 17 17 16 16 16 16 15 16 17 17 17 16 17 17 18 18 18 18 18 18 18 19 19 19 19 19
15 15 15 16 16 16 17 18 18 18 18 18 17 18 17 17 18 18 18 18 18 17 17 17 17 17 18 18 18 19 19 20 20 20 20 20 20 21 21 21 21 21 22
16 16 16 17 17 17 17 17 17 18 18 18 17 18 18 18 18 19 19 19 18 18 18 18 19 19 20 20 20 20 21 21 21 22 22 22 22 22 22 22 23 24 24
17 17 17 17 17 18 17 17 17 17 17 18 18 18 18 19 19 19 19 19 19 19 19 19 20 20 20 21 21 22 22 22 22 23 23 23 24 24 24 25 26 26 26
17 16 17 17 18 18 18 17 17 17 18 18 19 19 18 18 18 18 18 19 20 20 21 21 21 22 22 22 22 23 23 23 23 23 24 24 25 26 27 27 27 28 28
17 16 17 17 18 18 18 18 18 17 18 18 18 19 19 19 19 19 20 20 21 22 22 22 22 23 23 23 23 24 24 24 24 25 25 26 26 27 28 29 29 30 31
17 17 17 17 17 18 18 18 18 18 18 19 19 20 21 21 21 21 22 22 22 22 23 23 24 24 24 24 24 24 25 25 26 27 27 27 28 29 30 31 31 32 33
16 17 18 18 18 19 19 19 19 19 19 20 20 21 22 23 23 23 23 24 24 25 24 25 25 25 25 25 25 26 27 27 27 28 28 29 30 31 32 33 34 34 35
17 18 19 18 19 19 20 20 21 20 21 21 22 23 23 24 25 25 26 26 26 26 26 26 26 27 27 27 28 28 28 28 29 29 30 31 32 32 33 34 35 36 37

GEFSMW_500_meanwind_186.txt.gz
Wind_Speed
14 14 13 12 11 11 11 11 10 10 9 9 8 8 7 6 6 6 6 6 6 6 6 6 7 7 6 6 6 6 6 6 5 4 4 3 3 4 4 5 5 5 6
14 14 14 13 12 11 11 11 10 9 9 9 8 8 8 7 7 7 7 6 6 6 6 6 6 6 6 6 6 6 5 5 4 4 3 3 4 4 4 4 4 5 5
14 14 14 13 13 12 11 11 10 9 9 9 9 8 8 7 7 7 7 7 6 6 6 6 5 6 6 6 6 6 5 4 4 4 4 4 4 3 4 4 4 5 5
14 13 14 14 14 13 12 12 11 10 10 10 10 9 8 8 8 7 7 7 7 6 6 6 6 6 6 6 6 6 5 4 4 3 3 4 4 3 4 4 5 5 5
15 15 14 15 15 14 13 13 12 12 11 11 11 10 9 8 8 8 7 7 7 7 6 6 6 6 6 6 6 5 5 5 4 4 4 4 4 4 5 5 5 5 6
16 16 16 16 16 15 14 13 12 12 12 12 11 10 10 9 8 7 7 7 7 7 6 6 6 6 6 6 5 5 5 5 5 5 5 5 5 5 5 6 6 6 6
16 16 16 16 16 15 15 14 13 12 12 11 11 10 9 9 9 8 7 6 6 7 7 7 6 6 6 6 6 6 6 5 5 6 6 6 6 6 6 6 6 6 6
15 16 15 16 16 15 15 14 14 13 12 11 10 10 10 10 9 8 7 7 6 7 6 6 6 6 6 6 6 6 6 6 6 7 6 6 7 7 7 6 6 6 6
14 14 14 14 15 16 15 14 13 12 12 12 11 11 10 10 10 9 8 8 8 7 7 7 7 7 6 6 6 6 6 7 7 7 6 7 7 6 6 6 6 7 8
14 14 13 13 14 15 15 14 13 13 13 13 12 11 11 11 11 10 10 9 9 8 7 7 7 7 7 7 6 7 7 7 7 7 7 7 6 6 7 7 8 8 8
13 14 15 14 15 15 15 14 14 13 13 13 12 12 12 12 12 11 10 9 9 9 8 7 7 7 8 8 7 7 7 8 8 8 7 7 7 7 7 8 9 9 10
13 13 14 14 15 15 15 15 14 14 14 13 13 13 12 12 12 12 11 11 10 9 9 8 8 8 8 8 8 8 9 9 9 8 8 8 8 9 9 9 10 11 11
13 13 12 13 14 14 14 15 15 15 14 14 13 13 13 12 13 13 12 12 11 11 11 10 10 10 9 8 9 9 10 10 9 9 9 10 10 10 11 11 11 12 12
13 13 13 14 14 14 15 15 15 15 15 14 14 14 13 13 13 14 13 12 12 12 12 11 11 11 10 10 10 10 11 11 10 11 11 11 11 11 12 13 13 13 14
13 13 13 13 14 14 15 16 16 16 16 15 14 14 14 14 14 14 13 13 13 13 13 12 12 12 11 12 12 12 12 12 12 12 12 12 13 13 14 14 14 15 16
13 13 13 13 13 14 15 15 16 16 16 15 15 15 14 14 14 14 13 14 14 14 15 13 13 13 13 13 13 14 13 13 13 13 14 14 14 15 15 16 16 17 17
14 14 14 13 14 14 15 15 15 15 16 16 15 16 15 14 14 14 15 15 15 14 14 14 14 14 14 14 15 15 15 16 16 16 16 16 16 17 17 17 18 19 19
14 15 15 15 15 15 15 15 16 16 16 16 15 15 15 15 15 15 16 16 15 15 15 15 15 16 16 16 16 17 17 17 18 18 18 18 18 19 19 20 20 20 21
15 16 16 16 15 15 15 16 16 17 16 16 16 16 15 15 15 15 16 16 16 16 16 17 17 18 18 19 19 19 19 19 19 20 20 20 20 20 21 22 22 22 23
15 15 16 16 16 16 16 16 16 16 17 16 16 16 16 16 15 15 15 15 15 16 17 18 19 19 19 20 20 20 20 20 21 21 21 22 22 22 23 24 24 24 25
15 15 16 16 17 16 16 16 17 17 17 17 16 16 16 16 16 16 15 16 16 17 17 19 19 19 20 20 20 21 21 22 22 22 22 23 24 24 25 25 25 26 27
15 15 15 16 16 16 16 16 16 16 16 17 17 17 17 16 16 16 17 17 18 19 19 19 20 20 21 21 22 22 23 23 23 23 23 24 24 25 26 27 27 28 29
15 15 15 16 17 17 17 17 17 17 17 17 18 18 17 17 17 18 19 19 19 20 20 20 20 21 22 22 23 24 24 24 24 24 24 25 26 26 27 28 29 30 31
16 16 16 17 18 18 18 17 17 17 18 18 19 19 19 19 18 19 19 20 20 20 21 21 21 22 23 23 24 24 25 25 25 26 27 28 28 28 29 30 31 32 32
16 17 17 18 19 18 19 18 18 18 18 19 20 20 20 20 20 20 21 21 22 22 22 22 22 23 23 24 24 24 25 26 27 27 28 29 30 31 31 32 32 32 32
17 17 17 17 18 18 18 18 19 19 19 19 19 20 20 21 21 21 22 22 23 24 24 23 23 23 24 25 26 26 27 28 28 29 30 31 31 32 33 33 33 34 35

GEFSMW_500_meanwind_192.txt.gz
Wind_Speed
11 10 9 9 11 11 11 11 11 10 10 9 9 9 9 8 7 6 6 6 5 5 5 5 5 5 4 4 5 6 6 6 5 5 4 4 4 5 6 6 6 6 7
11 11 11 11 12 12 12 12 12 11 10 9 9 9 9 8 8 7 7 6 6 6 6 5 5 5 4 4 5 6 6 5 5 4 4 4 4 4 5 5 5 6 7
13 12 12 12 13 13 12 12 12 12 11 10 9 9 9 9 8 7 7 6 6 6 6 5 4 4 4 5 5 6 6 5 5 4 4 4 4 4 4 5 5 6 6
13 13 13 13 13 14 13 12 12 12 11 11 10 9 9 9 9 8 7 7 6 6 6 5 5 4 4 5 5 5 5 5 5 4 4 4 4 4 4 4 5 5 6
13 13 13 13 13 14 14 13 13 13 12 11 11 10 9 9 8 7 6 6 6 6 6 5 5 4 4 5 5 5 5 5 4 4 4 4 4 5 5 5 5 6 6
13 13 13 13 13 14 14 14 14 14 13 12 12 11 10 9 8 7 7 6 6 5 5 5 5 5 5 5 5 5 5 5 4 4 5 5 5 5 5 6 6 6 7
14 14 14 14 14 14 14 15 15 14 14 13 12 12 10 9 9 8 7 6 5 5 5 5 5 5 6 6 6 5 5 5 5 5 5 6 6 6 6 7 7 7 8
13 13 14 14 14 15 15 15 15 14 14 13 13 12 11 10 9 9 8 7 6 6 6 6 6 6 6 6 5 5 5 5 5 5 5 6 7 7 7 7 7 7 7
13 13 14 14 14 15 16 16 14 14 14 14 13 13 12 10 9 9 9 8 7 7 7 7 7 6 6 6 5 6 6 5 5 5 5 6 7 7 7 7 7 7 7
13 13 14 15 14 14 15 16 15 14 13 13 13 13 12 11 10 9 9 8 8 7 7 6 7 6 6 6 6 6 6 6 6 6 6 7 7 7 7 7 8 8 8
13 13 14 15 15 14 15 15 15 15 13 13 13 13 12 11 10 10 8 9 9 8 7 7 7 7 7 7 7 7 7 7 7 7 8 8 8 8 8 8 9 9 9
12 12 14 15 15 15 15 15 14 14 13 13 13 13 12 11 11 10 10 9 9 9 8 8 8 8 8 8 8 7 7 7 8 8 9 9 9 9 10 10 10 10 11
12 13 13 15 15 16 15 16 15 14 13 13 13 13 12 11 11 11 11 11 10 11 10 10 10 10 9 9 9 9 8 9 9 10 10 10 11 11 12 12 12 12 12
11 13 13 14 15 16 16 16 16 15 15 14 14 14 13 12 12 12 12 12 12 11 11 10 11 11 11 11 10 10 10 10 11 11 12 12 12 12 12 13 13 13 13
10 12 13 13 13 14 15 15 16 16 15 15 15 15 15 14 14 13 12 12 12 12 12 11 11 12 13 12 12 12 12 12 13 13 13 13 13 13 13 13 14 15 15
10 11 11 11 12 12 14 15 15 16 16 16 16 16 16 15 15 14 13 13 12 12 12 12 13 14 14 14 14 14 15 15 15 15 15 15 15 15 15 15 16 16 17
11 11 12 12 12 12 13 14 14 16 16 16 16 16 16 16 15 16 15 14 13 13 14 13 14 15 15 15 15 16 16 16 17 17 16 17 17 18 18 18 18 18 18
12 12 13 13 13 13 13 14 14 15 16 17 17 17 17 16 16 16 15 14 14 14 15 15 15 15 16 16 17 17 17 18 18 18 18 18 19 19 19 20 20 21 21
12 13 13 13 14 14 14 15 15 15 16 16 17 17 17 16 16 16 16 16 16 16 16 16 16 16 17 17 18 18 18 19 19 20 20 20 20 20 21 21 22 22 23
13 13 13 14 14 14 15 15 15 15 16 16 16 17 18 18 18 18 17 17 17 17 16 17 17 17 17 18 19 19 20 20 21 21 22 22 22 22 22 22 23 24 25
12 13 13 14 14 15 15 15 16 16 16 17 17 18 19 19 19 18 18 17 17 18 17 18 17 18 18 19 20 20 20 21 22 22 23 22 23 23 24 24 25 26 27
13 13 14 14 15 16 16 16 16 17 17 17 18 18 19 19 19 19 18 18 18 18 18 18 18 18 19 20 20 20 21 22 23 23 23 23 24 25 25 26 27 28 29
14 14 14 15 15 15 15 16 17 17 18 18 18 18 19 19 19 19 18 18 19 19 19 19 19 19 20 20 20 21 22 23 23 23 23 24 25 25 26 28 29 30 30
15 15 15 16 16 16 16 16 17 18 19 19 19 20 20 19 19 19 20 19 19 19 19 20 20 20 20 21 21 22 23 24 25 25 25 26 27 28 29 30 31 32 32
16 17 16 16 17 17 16 17 17 18 19 20 20 21 21 21 21 20 20 21 21 20 20 21 21 22 23 23 24 24 24 26 26 27 28 28 29 30 31 32 33 33 33
17 17 17 17 17 17 17 18 18 19 19 19 20 21 22 22 23 22 22 22 22 22 23 22 22 23 24 25 25 26 26 27 27 28 28 29 30 31 32 32 32 32 33

GEFSMW_500_meanwind_198.txt.gz
Wind_Speed
13 13 13 13 14 14 14 14 14 13 12 11 11 10 10 11 10 9 9 9 8 8 7 7 6 6 6 6 7 7 7 7 7 7 7 7 7 7 7 7 7 7 8
14 14 14 14 14 14 14 14 14 14 13 12 11 10 10 9 9 9 10 9 8 7 7 7 6 6 6 6 6 7 8 7 7 7 7 7 7 7 7 7 7 8 8
14 15 15 15 15 15 15 15 15 14 13 12 12 11 10 10 9 9 9 9 8 8 8 8 7 7 7 7 7 7 8 8 7 7 7 7 7 7 6 7 7 8 9
15 15 16 16 16 16 16 15 15 14 14 13 12 11 11 10 10 9 9 9 9 8 8 8 8 7 7 7 7 7 8 8 8 7 7 7 7 7 6 7 8 8 9
14 15 15 16 16 17 17 16 16 15 15 13 12 12 11 11 10 9 9 9 9 9 8 8 8 7 7 7 7 7 8 8 8 8 7 7 7 7 7 8 9 9 10
14 15 15 16 16 17 17 17 17 16 15 14 13 13 12 11 10 10 10 10 9 9 8 8 8 8 7 7 7 8 8 8 8 8 8 7 8 8 9 9 9 10 10
15 15 14 15 16 16 16 16 16 16 16 15 15 14 13 13 12 10 10 10 9 9 8 8 8 8 7 7 8 8 8 8 8 8 7 7 8 8 9 9 9 10 10
15 15 15 15 15 16 16 17 17 16 16 16 16 15 14 13 12 11 10 10 10 9 9 8 8 8 8 8 8 9 9 9 9 8 8 8 8 9 9 10 10 11 11
15 15 15 16 16 16 17 17 18 18 17 17 16 16 15 14 13 12 11 10 10 10 9 9 9 8 8 8 8 8 8 8 9 9 8 9 9 10 10 10 11 11 11
15 15 16 17 18 18 18 18 18 18 18 17 17 16 15 14 13 12 11 11 10 10 9 9 9 9 9 9 8 8 8 8 8 8 9 9 10 10 11 11 12 12 11
16 16 17 17 19 19 18 17 18 18 17 17 17 17 16 15 14 13 11 11 10 10 9 10 9 9 9 9 9 9 9 9 10 10 10 10 11 11 12 12 12 12 12
16 17 18 18 18 19 18 17 17 16 16 16 16 16 16 15 14 13 12 12 11 10 10 11 10 10 10 10 10 9 10 10 11 11 11 11 11 12 12 13 13 13 14
15 16 18 18 18 18 18 18 17 16 16 16 16 16 15 15 14 14 13 12 12 11 11 11 11 10 10 11 11 11 11 11 12 11 12 13 13 13 13 14 14 14 15
14 15 16 17 17 17 18 18 17 16 16 16 15 16 15 15 15 15 14 13 13 12 12 11 11 11 11 11 12 12 13 13 13 13 14 15 15 15 15 15 15 16 16
13 14 16 16 16 17 17 17 17 17 17 16 15 15 16 16 16 15 14 13 13 13 12 12 12 12 13 14 14 14 14 14 14 14 15 15 16 16 16 16 17 17 17
12 13 14 15 16 16 17 17 16 17 17 17 16 16 16 16 16 16 15 14 14 13 13 12 13 13 14 15 15 15 15 16 16 16 16 16 17 17 17 17 18 18 19
13 14 14 16 17 17 17 16 16 17 17 17 17 16 16 17 17 16 16 15 15 14 14 14 14 14 15 15 16 16 17 17 17 17 17 18 18 19 19 20 20 20 20
13 14 15 15 16 16 16 16 16 16 16 17 17 16 16 17 17 17 16 16 16 16 16 15 15 16 16 16 16 16 17 18 18 18 18 19 19 20 21 21 21 21 21
14 14 16 16 16 16 16 16 16 16 15 15 16 16 17 17 17 17 17 17 17 17 16 16 16 16 17 17 17 17 17 18 18 19 19 19 20 21 21 22 22 23 23
14 14 15 15 15 15 16 17 17 16 16 15 15 16 17 17 17 17 18 17 17 17 17 17 17 17 17 18 18 18 18 18 19 19 20 20 21 22 22 23 23 24 25
15 15 15 15 15 16 16 16 16 16 16 16 16 16 16 16 16 16 17 17 17 16 16 17 17 17 18 18 18 18 18 19 19 20 21 22 23 23 24 25 26 27 27
15 15 15 15 15 15 16 16 16 16 17 17 16 16 16 16 16 16 17 17 17 16 16 17 17 18 18 18 19 19 19 20 20 22 22 23 23 24 25 27 27 28 29
14 15 15 15 15 15 16 17 17 17 17 17 17 17 17 17 17 17 17 17 18 18 18 17 18 18 19 20 20 20 20 21 22 23 24 25 25 26 27 28 29 29 30
15 15 15 15 15 15 16 16 16 17 18 18 18 18 18 18 18 18 18 18 19 19 19 19 19 20 20 20 21 21 22 22 23 24 25 26 26 27 28 28 29 29 30
15 15 15 16 16 16 16 17 17 17 17 18 18 18 18 18 18 19 19 20 20 19 19 20 20 20 21 22 22 23 23 23 24 25 26 27 27 27 28 29 30 30 31
17 16 16 17 17 17 17 17 17 18 18 18 19 19 19 19 19 20 20 20 20 20 20 21 21 22 23 23 23 24 24 25 26 27 27 28 28 28 29 31 31 32 32

GEFSMW_500_meanwind_204.txt.gz
Wind_Speed
15 15 15 15 16 15 15 15 14 14 14 13 12 12 12 11 11 11 10 9 8 8 8 8 8 8 8 8 7 7 7 7 7 8 8 8 8 9 9 10 9 9 9
15 14 14 15 15 15 16 15 15 15 14 14 13 13 13 12 11 11 11 10 9 9 9 9 8 8 7 7 7 7 6 7 7 8 8 8 8 9 9 9 9 9 9
15 15 15 15 16 15 16 16 16 16 15 15 14 13 13 12 11 11 11 10 10 10 9 9 8 8 8 7 7 7 6 7 7 8 8 8 8 9 9 9 9 9 10
16 16 15 16 16 16 16 16 16 16 15 15 14 13 12 12 11 11 11 10 10 10 9 9 9 8 8 7 7 7 7 7 7 8 8 8 8 9 9 8 9 9 9
15 15 15 15 16 17 16 16 16 16 16 15 14 14 14 13 12 12 12 12 11 11 10 9 9 9 8 8 8 7 7 7 7 8 8 8 8 8 8 8 8 9 9
16 16 16 16 16 16 16 16 16 16 16 15 14 14 14 13 13 12 12 12 12 11 10 9 9 9 8 8 8 7 7 7 8 8 8 8 8 8 8 9 9 9 10
15 15 15 16 15 15 15 16 16 16 15 15 15 15 14 13 13 12 12 11 11 11 10 9 9 8 8 8 8 8 8 8 8 8 8 8 8 8 9 9 9 9 10
15 14 14 15 15 15 16 15 16 16 15 15 15 15 14 13 13 12 12 11 10 10 9 9 9 8 8 8 8 8 9 9 9 9 9 9 9 9 9 9 9 10 11
15 15 15 15 15 15 15 16 16 16 15 15 15 15 15 14 14 13 12 12 11 10 10 10 9 9 9 9 8 9 9 10 10 10 10 10 10 10 10 11 11 11 11
14 15 15 15 15 16 16 16 15 15 15 16 15 15 15 15 15 14 12 12 11 10 10 10 10 10 10 9 9 9 9 10 10 10 10 11 11 12 12 12 12 12 12
14 14 15 15 16 16 17 16 16 16 16 16 16 16 16 16 15 14 13 13 12 11 11 11 11 11 11 10 10 10 10 10 10 11 11 12 12 12 12 13 12 13 13
14 14 15 16 16 17 17 17 16 16 16 17 16 15 15 15 15 15 14 14 13 12 12 12 11 11 11 11 11 10 10 10 11 11 12 12 13 13 13 13 13 13 13
15 15 15 16 16 16 17 17 17 16 16 16 15 15 14 14 14 14 14 14 13 12 12 11 11 11 11 11 11 11 10 11 11 12 12 12 13 13 14 14 14 14 15
14 15 15 16 17 17 17 17 17 17 16 16 16 15 14 14 14 15 14 14 14 13 13 12 12 12 12 12 12 11 11 12 13 13 13 13 14 14 14 14 14 15 15
14 15 15 16 16 17 17 17 17 17 17 17 16 16 15 15 14 14 14 14 14 14 14 13 13 13 13 13 12 12 12 12 13 13 13 14 14 14 14 14 14 15 15
14 15 15 15 15 15 16 16 17 17 17 17 17 17 16 15 15 15 14 14 14 14 14 14 14 14 14 14 14 14 13 13 13 13 14 14 14 14 14 14 15 15 16
15 15 15 15 15 14 15 16 16 17 17 17 17 17 17 16 16 16 15 15 14 14 14 14 14 15 15 14 14 14 13 13 14 14 14 14 14 14 14 15 15 16 16
15 15 15 15 15 15 15 16 16 17 17 18 18 18 17 17 17 16 15 15 15 14 14 14 14 14 15 14 14 15 14 14 14 15 15 15 14 15 16 17 17 18 18
15 16 15 16 16 16 16 17 17 18 18 18 18 18 18 18 17 16 16 15 15 15 15 14 15 15 15 15 14 14 14 14 15 15 15 16 16 16 17 18 19 19 20
14 15 16 17 17 16 16 17 17 18 18 18 18 18 18 18 18 17 17 16 16 16 16 16 16 16 16 16 16 16 16 16 16 16 16 16 17 18 18 19 20 21 22
14 14 15 16 16 16 17 17 17 17 17 18 18 18 17 17 17 17 17 17 17 17 17 17 17 17 17 17 17 16 16 17 16 17 17 18 18 19 20 21 22 23 23
14 14 14 15 15 16 16 17 17 17 17 18 18 17 16 16 16 17 17 17 17 17 17 17 17 17 16 16 17 17 17 17 17 18 18 19 19 20 21 22 23 23 25
13 13 14 14 15 15 15 16 17 17 17 18 18 18 17 17 17 17 17 17 17 17 17 17 17 17 17 17 17 17 17 18 19 19 19 20 21 22 23 24 24 25 26
13 13 13 13 14 14 15 15 15 16 17 17 17 18 18 18 18 17 17 17 17 17 17 17 17 17 18 18 18 18 19 19 20 21 21 22 23 24 24 25 25 26 27
14 14 13 14 14 14 15 15 15 16 17 17 17 17 17 17 18 18 18 18 18 18 17 17 18 18 19 19 20 20 20 21 22 22 23 24 24 25 25 26 27 27 28
16 16 15 15 15 16 15 15 15 16 16 17 17 17 17 17 18 18 19 19 19 19 19 18 19 19 20 21 21 22 22 23 23 24 24 25 25 26 26 27 28 29 30

GEFSMW_500_meanwind_210.txt.gz
Wind_Speed
15 15 15 15 15 15 14 13 14 13 12 12 12 11 11 11 10 9 9 9 9 8 8 9 9 9 9 9 9 9 9 9 10 10 10 10 11 11 12 11 11 11 11
15 14 14 15 15 15 14 14 14 14 13 13 12 11 11 10 11 11 10 9 9 9 8 9 9 9 9 9 9 9 9 9 10 10 10 11 11 11 11 11 11 12 11
14 14 13 14 14 15 15 14 14 14 14 13 12 12 12 11 11 11 11 10 10 10 10 9 9 9 9 9 9 9 9 9 10 10 11 10 10 10 10 10 11 11 11
15 14 14 13 13 13 14 14 14 15 15 14 14 13 13 13 13 12 12 12 12 11 11 10 10 10 9 9 9 9 9 9 10 10 10 10 10 10 10 10 10 10 10
15 15 14 14 14 14 14 14 14 14 14 14 14 14 14 13 13 12 12 12 12 11 12 11 11 11 10 10 10 10 10 10 10 10 10 10 10 11 10 11 11 10 10
16 15 14 14 14 15 14 14 14 14 14 14 14 14 14 14 13 13 12 12 12 12 12 11 11 11 11 10 10 9 10 10 10 10 10 10 10 10 11 11 11 11 10
16 16 15 15 14 15 14 14 15 15 14 14 14 14 13 13 13 13 12 12 11 11 12 11 11 11 11 10 9 10 10 10 10 10 10 10 10 10 11 11 12 11 12
17 17 16 16 16 15 15 15 15 15 14 14 15 14 13 13 13 13 12 13 12 12 11 11 11 11 11 11 10 10 10 10 10 10 10 10 10 11 12 12 12 12 12
16 16 16 17 16 15 15 15 15 15 14 14 14 14 13 13 13 12 12 12 12 12 12 12 11 11 11 11 10 11 11 11 11 11 11 10 11 12 12 12 12 13 13
16 16 16 16 16 16 15 15 15 14 14 14 14 14 14 14 13 13 12 11 11 12 12 13 12 12 12 11 10 10 10 11 11 11 11 11 11 11 12 12 12 13 13
15 16 17 16 16 16 15 15 15 15 14 14 14 14 14 14 13 13 12 12 12 12 12 11 11 11 11 10 10 10 10 11 11 10 10 10 11 12 12 12 12 13 13
16 16 16 16 16 16 15 15 15 15 14 14 14 14 14 14 13 13 13 13 12 12 12 11 10 9 9 9 9 10 10 10 10 10 10 11 11 12 12 12 12 13 13
15 16 16 16 16 15 15 15 15 16 15 15 15 14 14 14 13 14 13 13 13 13 12 12 11 11 11 11 11 10 10 9 10 10 10 11 11 11 12 12 12 12 13
15 15 16 16 16 15 15 16 16 16 16 15 15 14 14 14 13 14 14 14 14 13 12 13 12 12 12 12 11 11 10 10 10 11 11 11 11 12 13 13 13 13 13
16 16 15 16 16 16 16 15 16 16 16 16 15 15 15 15 14 14 14 13 13 13 13 13 13 13 12 11 11 12 12 12 12 12 12 12 12 13 14 14 14 14 14
15 16 16 16 16 16 16 16 16 16 16 16 16 15 15 15 15 15 14 14 14 13 13 13 14 14 13 12 12 12 12 13 13 13 13 13 13 14 14 15 14 15 15
14 15 15 16 16 16 16 16 16 17 16 16 16 16 16 16 16 15 15 15 14 14 14 14 14 15 15 14 14 13 13 13 13 13 14 14 14 15 15 15 16 16 17
14 14 15 15 16 16 16 17 17 17 17 16 16 16 17 17 16 16 16 15 15 15 15 15 15 15 15 15 14 14 14 14 14 14 15 16 16 16 16 17 17 19 19
15 15 14 14 15 15 15 15 16 17 17 17 16 16 17 17 17 16 16 16 16 16 17 15 15 15 15 15 14 15 15 15 15 16 16 17 17 17 18 19 19 20 20
16 15 14 14 14 15 15 15 16 16 17 17 16 17 17 17 17 17 17 17 17 18 17 16 15 15 15 15 15 16 16 16 16 17 17 17 17 18 19 19 20 21 21
16 15 15 14 15 15 16 16 16 16 16 16 17 17 18 18 18 18 18 18 18 18 17 17 17 16 16 16 16 16 16 17 18 18 18 18 19 19 19 20 21 22 23
15 15 15 15 15 15 15 16 17 17 17 17 17 17 17 18 18 18 17 17 18 18 18 17 17 17 17 17 17 17 17 18 19 20 20 20 20 20 21 22 22 23 24
14 14 15 15 15 15 15 15 16 17 17 17 17 17 17 17 18 18 17 17 17 17 18 18 18 18 18 18 18 19 19 20 21 21 21 21 21 22 22 23 24 25 25
14 14 14 14 15 15 15 15 15 16 17 17 17 17 17 17 17 18 17 17 17 17 18 18 19 19 19 19 20 20 20 21 21 21 21 21 22 23 23 24 25 25 25
15 14 13 13 14 15 15 15 16 16 16 17 17 17 17 17 18 18 18 18 18 17 18 18 19 19 19 20 21 21 21 22 22 22 23 23 24 24 24 25 26 26 27
15 15 15 14 13 14 15 15 15 16 16 17 17 17 18 18 19 19 19 19 19 19 19 19 19 19 19 20 21 21 22 22 23 23 23 24 24 25 26 26 27 28 28

GEFSMW_500_meanwind_216.txt.gz
Wind_Speed
12 12 12 12 12 12 13 13 13 13 14 14 13 13 13 12 12 12 12 11 10 9 9 8 8 8 9 9 9 8 9 9 9 10 10 10 10 9 9 10 10 10 10
11 12 12 12 12 12 12 12 12 13 14 14 13 13 13 13 13 12 12 11 10 10 10 10 9 9 9 9 9 8 9 9 10 10 10 9 9 9 9 9 10 10 10
12 12 13 12 12 12 12 12 12 12 13 14 13 13 13 13 12 12 12 12 11 11 11 11 10 10 10 9 9 9 10 10 10 10 10 9 8 9 9 9 9 9 9
13 13 13 13 13 13 13 12 12 12 12 12 13 13 14 13 13 12 12 12 12 12 12 12 11 11 10 10 9 10 10 10 10 10 10 9 8 7 8 9 9 9 8
12 12 13 13 13 13 13 13 12 12 12 12 13 13 13 14 14 13 13 13 13 12 12 12 12 11 11 11 11 11 11 11 11 10 10 9 9 8 7 8 9 9 9
12 12 12 13 12 12 13 13 12 12 13 12 12 13 13 14 14 14 14 14 14 14 13 13 12 12 11 11 11 11 12 11 11 10 10 9 10 9 8 8 9 9 9
12 13 13 12 12 12 13 13 13 13 13 13 13 13 14 14 14 14 14 15 15 14 14 13 13 13 13 12 12 12 11 11 11 11 10 10 10 10 9 8 8 9 9
12 13 13 13 13 13 13 13 14 13 14 13 14 14 15 15 14 14 14 14 15 14 13 13 13 13 13 13 12 12 11 11 12 11 11 11 10 10 10 9 8 8 9
12 12 12 13 14 14 14 14 14 14 14 14 15 14 15 16 15 15 15 14 14 14 13 13 13 13 14 13 12 11 12 12 11 10 11 11 11 10 10 10 9 9 9
12 12 12 13 14 14 15 14 15 15 15 15 16 15 15 15 15 15 15 14 14 13 13 13 13 13 13 13 12 12 13 13 12 11 11 11 10 10 10 10 9 9 9
12 12 12 13 14 14 15 15 15 15 15 15 15 15 14 15 15 15 16 15 14 14 14 13 13 13 13 12 12 13 13 13 12 12 11 11 10 10 10 10 10 10 10
12 12 12 13 13 14 14 15 15 15 15 15 15 15 15 16 16 15 16 15 14 14 14 14 13 13 12 12 13 13 13 12 13 12 11 10 9 10 10 10 10 10 10
11 12 13 13 13 14 14 15 15 15 15 15 16 16 16 16 16 15 15 15 14 15 15 15 14 13 13 13 13 12 12 11 12 11 10 9 10 11 11 11 11 11 12
11 12 13 13 13 14 14 15 16 16 16 16 17 17 17 16 16 15 15 15 15 15 15 15 14 13 13 13 13 12 11 11 11 11 11 10 10 11 11 11 11 12 13
12 12 13 14 14 14 14 14 15 16 16 16 17 17 17 16 16 15 16 15 15 15 14 14 14 13 13 13 13 12 12 11 11 11 11 11 11 11 12 12 13 13 14
12 13 13 14 14 14 14 15 15 15 16 16 16 16 16 17 17 17 16 16 16 16 15 15 14 13 14 14 13 12 12 12 12 12 12 12 12 13 13 14 15 15 15
12 12 12 12 13 13 15 15 15 15 15 16 16 16 16 15 16 17 16 16 16 16 15 14 14 14 14 14 14 14 14 14 14 14 14 13 14 14 15 15 16 16 17
12 12 12 12 12 13 15 15 15 15 15 16 16 16 15 15 15 16 16 16 16 16 15 15 15 14 14 15 15 15 15 15 15 15 15 15 16 16 16 17 17 17 18
12 12 12 12 12 13 14 15 15 15 15 16 17 17 16 15 16 15 16 17 17 16 16 16 16 15 16 16 17 17 17 17 17 16 16 17 17 18 18 18 19 19 19
13 13 13 12 12 12 14 15 15 15 15 16 16 17 17 17 16 16 17 17 17 17 17 16 17 17 17 17 18 18 18 18 18 18 18 18 19 19 19 20 20 20 21
13 13 13 13 13 13 14 14 14 14 15 16 16 17 17 17 17 17 18 18 18 18 17 17 18 18 19 18 19 19 19 19 19 19 19 19 19 20 20 21 21 21 22
13 12 13 13 14 14 13 14 15 15 16 16 16 16 17 17 17 17 17 17 17 18 19 19 19 19 20 19 19 19 19 20 20 20 20 20 20 20 20 20 21 21 23
13 13 13 13 13 13 13 14 15 16 17 17 17 16 16 17 18 18 18 17 17 18 18 19 19 19 19 20 20 20 20 20 20 20 21 20 20 20 21 22 22 23 23
14 14 14 14 13 14 14 14 14 15 16 17 18 17 17 17 17 18 18 17 17 17 18 18 18 18 19 19 19 20 19 19 19 19 20 20 21 21 22 23 24 23 23
15 15 14 15 14 14 14 15 15 15 15 17 18 18 18 18 18 18 17 17 17 17 17 17 18 18 18 19 20 20 20 20 20 20 20 20 21 22 23 23 24 24 25
16 16 15 15 15 15 15 15 16 16 17 17 17 17 18 18 18 18 17 17 17 17 17 17 17 17 18 19 20 20 20 20 21 21 21 21 22 23 24 24 25 25 25